Location: Matera
(40.6670°N, 16.6000°E)
Time: 14:00:47
(UTC+01:00)

ISS - Pass Details

Date: 23 January 2019
Orbit: 403 x 411 km, 51.6° (Epoch: 16 February)

Event Time Altitude Azimuth Distance (km) Brightness Sun altitude
Rises 18:33:01 0° 235° (SW) 2,321 1.2 -17.6°
Reaches altitude 10° 18:35:05 10° 237° (WSW) 1,465 0.0 -18.0°
Maximum altitude 18:38:22 78° 323° (NW) 422 -3.8 -18.6°
Enters shadow 18:38:50 61° 31° (NNE) 467 -3.8 -18.7°
